UAL154 PKMJ-PTSA

Flight info

Callsign UAL154
Flight time 1h 20m
Altitude 34000
Route MAJ 07N170E LENIA UKS
Aircraft B738/M-SDE2E3FGHIRWXY/LB1

Departure

Time 2026-04-19 01:19
Airport Marshall Islands International Airport (PKMJ)

Arrival

Time 2026-04-19 02:40
Airport Kosrae International Airport (PTSA)
Time Latitude Longitude Altitude Speed Heading
2026-04-19 00:57 7.06844 171.28192 18 ft 0 kts 122°
2026-04-19 01:08 7.06845 171.28192 18 ft 0 kts 122°
2026-04-19 01:12 7.06835 171.28203 18 ft 3 kts 139°
2026-04-19 01:12 7.06803 171.28215 18 ft 5 kts 179°
2026-04-19 01:12 7.06771 171.28203 18 ft 4 kts 217°
2026-04-19 01:12 7.06750 171.28180 17 ft 4 kts 239°
2026-04-19 01:13 7.06733 171.28130 17 ft 10 kts 256°
2026-04-19 01:13 7.06712 171.28043 17 ft 14 kts 256°
2026-04-19 01:13 7.06684 171.27933 20 ft 17 kts 255°
2026-04-19 01:13 7.06652 171.27811 23 ft 17 kts 256°
2026-04-19 01:14 7.06623 171.27687 24 ft 19 kts 256°
2026-04-19 01:14 7.06589 171.27545 23 ft 22 kts 256°
2026-04-19 01:14 7.06549 171.27382 20 ft 26 kts 255°
2026-04-19 01:14 7.06508 171.27214 17 ft 22 kts 257°
2026-04-19 01:15 7.06476 171.27077 16 ft 21 kts 257°
2026-04-19 01:15 7.06440 171.26923 16 ft 23 kts 257°
2026-04-19 01:15 7.06400 171.26762 18 ft 21 kts 256°
2026-04-19 01:15 7.06381 171.26683 19 ft 22 kts 257°
2026-04-19 01:16 7.06376 171.26663 20 ft 22 kts 257°
2026-04-19 01:16 7.06339 171.26503 22 ft 22 kts 257°
2026-04-19 01:16 7.06313 171.26399 23 ft 14 kts 255°
2026-04-19 01:16 7.06287 171.26302 23 ft 14 kts 255°
2026-04-19 01:17 7.06259 171.26205 21 ft 7 kts 240°
2026-04-19 01:17 7.06233 171.26160 20 ft 4 kts 266°
2026-04-19 01:17 7.06245 171.26150 20 ft 2 kts 26°
2026-04-19 01:17 7.06253 171.26170 21 ft 0 kts 75°
2026-04-19 01:18 7.06258 171.26190 21 ft 22 kts 75°
2026-04-19 01:19 7.06365 171.26636 20 ft 106 kts 76°
2026-04-19 01:19 7.06604 171.27609 77 ft 170 kts 76°
2026-04-19 01:19 7.06853 171.28792 989 ft 172 kts 78°
2026-04-19 01:19 7.07175 171.29845 2085 ft 155 kts 63°
2026-04-19 01:20 7.07868 171.30692 2532 ft 173 kts 34°
2026-04-19 01:20 7.09094 171.31045 3047 ft 194 kts 360°
2026-04-19 01:20 7.10429 171.30595 3587 ft 216 kts 334°
2026-04-19 01:20 7.11647 171.29593 4147 ft 237 kts 314°
2026-04-19 01:21 7.12471 171.28088 4716 ft 257 kts 286°
2026-04-19 01:21 7.12484 171.26253 5358 ft 271 kts 252°
2026-04-19 01:21 7.11530 171.24626 6068 ft 278 kts 227°
2026-04-19 01:21 7.10130 171.23192 6708 ft 291 kts 222°
2026-04-19 01:22 7.08648 171.21771 7500 ft 297 kts 221°
2026-04-19 01:22 7.07157 171.20320 8413 ft 299 kts 224°
2026-04-19 01:22 7.05818 171.18727 9253 ft 303 kts 233°
2026-04-19 01:22 7.04815 171.16824 10054 ft 309 kts 253°
2026-04-19 01:23 7.04549 171.14642 10641 ft 320 kts 272°
2026-04-19 01:23 7.04747 171.12357 11176 ft 333 kts 277°
2026-04-19 01:23 7.05050 171.10013 11722 ft 345 kts 278°
2026-04-19 01:23 7.05365 171.07628 12516 ft 348 kts 278°
2026-04-19 01:24 7.05677 171.05191 13276 ft 351 kts 278°
2026-04-19 01:24 7.05981 171.02747 13974 ft 355 kts 278°
2026-04-19 01:24 7.06162 171.00238 14684 ft 360 kts 267°
2026-04-19 01:24 7.05663 170.97760 15409 ft 362 kts 257°
2026-04-19 01:25 7.05273 170.95259 16053 ft 365 kts 263°
2026-04-19 01:25 7.04844 170.92700 16728 ft 368 kts 259°
2026-04-19 01:25 7.04293 170.90170 17357 ft 371 kts 258°
2026-04-19 01:25 7.03702 170.87634 17937 ft 376 kts 258°
2026-04-19 01:26 7.03117 170.85077 18535 ft 379 kts 258°
2026-04-19 01:26 7.02546 170.82477 19070 ft 383 kts 259°
2026-04-19 01:26 7.01984 170.79820 19638 ft 387 kts 259°
2026-04-19 01:26 7.01431 170.77150 20199 ft 390 kts 259°
2026-04-19 01:27 7.00881 170.74474 20725 ft 394 kts 259°
2026-04-19 01:27 7.00327 170.71768 21245 ft 397 kts 259°
2026-04-19 01:27 6.99761 170.69003 21738 ft 401 kts 260°
2026-04-19 01:27 6.99203 170.66283 22241 ft 404 kts 260°
2026-04-19 01:28 6.98632 170.63496 22717 ft 407 kts 260°
2026-04-19 01:28 6.98057 170.60696 23177 ft 411 kts 260°
2026-04-19 01:28 6.97475 170.57861 23666 ft 414 kts 260°
2026-04-19 01:28 6.96890 170.55016 24111 ft 417 kts 260°
2026-04-19 01:29 6.96304 170.52164 24553 ft 420 kts 260°
2026-04-19 01:29 6.95706 170.49257 24977 ft 424 kts 260°
2026-04-19 01:29 6.95108 170.46347 25404 ft 427 kts 260°
2026-04-19 01:29 6.94501 170.43396 25843 ft 430 kts 260°
2026-04-19 01:30 6.93896 170.40456 26233 ft 433 kts 260°
2026-04-19 01:30 6.93277 170.37448 26657 ft 436 kts 260°
2026-04-19 01:30 6.92661 170.34454 27050 ft 439 kts 260°
2026-04-19 01:30 6.92042 170.31447 27424 ft 442 kts 260°
2026-04-19 01:31 6.91415 170.28404 27791 ft 445 kts 261°
2026-04-19 01:31 6.90782 170.25331 28170 ft 447 kts 261°
2026-04-19 01:31 6.90167 170.22348 28501 ft 451 kts 260°
2026-04-19 01:31 6.89534 170.19279 28863 ft 453 kts 261°
2026-04-19 01:32 6.88892 170.16170 29187 ft 456 kts 260°
2026-04-19 01:32 6.88243 170.13023 29524 ft 459 kts 260°
2026-04-19 01:32 6.87592 170.09868 29890 ft 461 kts 260°
2026-04-19 01:32 6.86941 170.06718 30214 ft 464 kts 260°
2026-04-19 01:33 6.86274 170.03491 30541 ft 467 kts 260°
2026-04-19 01:33 6.85610 170.00282 30866 ft 469 kts 260°
2026-04-19 01:33 6.84942 169.97051 31183 ft 472 kts 260°
2026-04-19 01:33 6.84277 169.93837 31501 ft 474 kts 260°
2026-04-19 01:34 6.83605 169.90588 31821 ft 476 kts 260°
2026-04-19 01:34 6.82922 169.87286 32142 ft 478 kts 260°
2026-04-19 01:34 6.82250 169.84041 32432 ft 480 kts 260°
2026-04-19 01:34 6.81563 169.80722 32875 ft 479 kts 260°
2026-04-19 01:35 6.80888 169.77470 33500 ft 475 kts 260°
2026-04-19 01:35 6.80214 169.74228 33962 ft 474 kts 260°
2026-04-19 01:35 6.79542 169.70991 34448 ft 472 kts 260°
2026-04-19 01:35 6.78874 169.67769 34851 ft 472 kts 260°
2026-04-19 01:36 6.78202 169.64528 35329 ft 469 kts 260°
2026-04-19 01:36 6.77533 169.61301 35724 ft 469 kts 260°
2026-04-19 01:36 6.76873 169.58122 35880 ft 471 kts 260°
2026-04-19 01:36 6.76194 169.54845 35872 ft 472 kts 260°
2026-04-19 01:37 6.74861 169.48433 35865 ft 467 kts 260°
2026-04-19 01:37 6.73531 169.42042 35863 ft 468 kts 260°
2026-04-19 01:38 6.72193 169.35609 35862 ft 468 kts 260°
2026-04-19 01:38 6.70865 169.29228 35863 ft 468 kts 260°
2026-04-19 01:39 6.69525 169.22794 35863 ft 468 kts 260°
2026-04-19 01:39 6.68187 169.16377 35863 ft 468 kts 260°
2026-04-19 01:40 6.66851 169.09976 35863 ft 469 kts 260°
2026-04-19 01:40 6.65502 169.03514 35863 ft 469 kts 260°
2026-04-19 01:41 6.64164 168.97115 35863 ft 468 kts 260°
2026-04-19 01:41 6.62816 168.90665 35863 ft 468 kts 260°
2026-04-19 01:42 6.61468 168.84221 35863 ft 469 kts 260°
2026-04-19 01:43 6.59449 168.74577 35863 ft 469 kts 260°
2026-04-19 01:43 6.58112 168.68196 35863 ft 469 kts 260°
2026-04-19 01:44 6.56756 168.61728 35864 ft 469 kts 260°
2026-04-19 01:44 6.55412 168.55325 35864 ft 469 kts 260°
2026-04-19 01:45 6.54059 168.48881 35867 ft 470 kts 260°
2026-04-19 01:45 6.52698 168.42406 35871 ft 470 kts 260°
2026-04-19 01:46 6.51344 168.35965 35872 ft 469 kts 260°
2026-04-19 01:46 6.50004 168.29593 35875 ft 469 kts 259°
2026-04-19 01:47 6.48650 168.23163 35871 ft 470 kts 259°
2026-04-19 01:47 6.47297 168.16737 35874 ft 469 kts 259°
2026-04-19 01:48 6.45933 168.10263 35872 ft 470 kts 259°
2026-04-19 01:48 6.44582 168.03862 35874 ft 470 kts 259°
2026-04-19 01:49 6.43223 167.97427 35873 ft 469 kts 259°
2026-04-19 01:49 6.41864 167.90996 35870 ft 469 kts 259°
2026-04-19 01:50 6.40513 167.84602 35874 ft 468 kts 259°
2026-04-19 01:50 6.39157 167.78192 35868 ft 470 kts 259°
2026-04-19 01:51 6.37797 167.71762 35868 ft 470 kts 259°
2026-04-19 01:51 6.36432 167.65317 35864 ft 470 kts 259°
2026-04-19 01:52 6.35069 167.58888 35863 ft 469 kts 259°
2026-04-19 01:52 6.33707 167.52467 35863 ft 468 kts 259°
2026-04-19 01:53 6.32343 167.46036 35863 ft 469 kts 259°
2026-04-19 01:53 6.30977 167.39601 35864 ft 470 kts 259°
2026-04-19 01:54 6.29609 167.33160 35863 ft 470 kts 259°
2026-04-19 01:54 6.28229 167.26668 35863 ft 470 kts 259°
2026-04-19 01:55 6.26866 167.20261 35865 ft 469 kts 259°
2026-04-19 01:55 6.25498 167.13829 35863 ft 470 kts 259°
2026-04-19 01:56 6.24126 167.07384 35863 ft 470 kts 259°
2026-04-19 01:56 6.22751 167.00932 35863 ft 470 kts 259°
2026-04-19 01:57 6.21372 166.94470 35863 ft 470 kts 259°
2026-04-19 01:57 6.20002 166.88048 35863 ft 469 kts 259°
2026-04-19 01:58 6.18623 166.81589 35861 ft 469 kts 259°
2026-04-19 01:58 6.17250 166.75163 35863 ft 470 kts 259°
2026-04-19 01:59 6.15871 166.68712 35862 ft 468 kts 259°
2026-04-19 01:59 6.14503 166.62320 35863 ft 470 kts 259°
2026-04-19 02:00 6.13127 166.55888 35863 ft 469 kts 259°
2026-04-19 02:00 6.11747 166.49442 35863 ft 468 kts 259°
2026-04-19 02:01 6.10370 166.43016 35863 ft 468 kts 259°
2026-04-19 02:01 6.09006 166.36652 35863 ft 468 kts 259°
2026-04-19 02:02 6.07633 166.30257 35863 ft 468 kts 258°
2026-04-19 02:02 6.06248 166.23807 35863 ft 469 kts 258°
2026-04-19 02:03 6.04883 166.17454 35863 ft 467 kts 258°
2026-04-19 02:03 6.03506 166.11047 35862 ft 467 kts 258°
2026-04-19 02:04 6.02133 166.04665 35862 ft 466 kts 258°
2026-04-19 02:04 6.00763 165.98292 35863 ft 468 kts 258°
2026-04-19 02:05 5.99382 165.91876 35861 ft 468 kts 258°
2026-04-19 02:05 5.98013 165.85519 35857 ft 468 kts 258°
2026-04-19 02:06 5.96640 165.79152 35846 ft 467 kts 258°
2026-04-19 02:06 5.95268 165.72798 35843 ft 465 kts 258°
2026-04-19 02:07 5.93899 165.66455 35848 ft 466 kts 258°
2026-04-19 02:07 5.92532 165.60123 35852 ft 464 kts 258°
2026-04-19 02:08 5.91156 165.53758 35861 ft 466 kts 258°
2026-04-19 02:08 5.89787 165.47423 35862 ft 465 kts 258°
2026-04-19 02:09 5.88410 165.41055 35861 ft 464 kts 258°
2026-04-19 02:09 5.87045 165.34749 35864 ft 464 kts 258°
2026-04-19 02:10 5.85676 165.28424 35863 ft 463 kts 258°
2026-04-19 02:10 5.84307 165.22104 35863 ft 463 kts 258°
2026-04-19 02:11 5.82939 165.15793 35864 ft 463 kts 258°
2026-04-19 02:11 5.81568 165.09477 35863 ft 464 kts 258°
2026-04-19 02:12 5.80206 165.03198 35864 ft 462 kts 258°
2026-04-19 02:12 5.78840 164.96912 35862 ft 463 kts 258°
2026-04-19 02:13 5.77466 164.90587 35864 ft 463 kts 258°
2026-04-19 02:13 5.76097 164.84288 35863 ft 462 kts 258°
2026-04-19 02:14 5.74729 164.78003 35581 ft 456 kts 258°
2026-04-19 02:14 5.74062 164.74934 35292 ft 454 kts 258°
2026-04-19 02:14 5.73387 164.71834 35000 ft 455 kts 258°
2026-04-19 02:14 5.72719 164.68764 34710 ft 455 kts 258°
2026-04-19 02:15 5.72035 164.65624 34411 ft 454 kts 258°
2026-04-19 02:15 5.71368 164.62563 34123 ft 453 kts 258°
2026-04-19 02:15 5.70693 164.59464 33831 ft 451 kts 258°
2026-04-19 02:15 5.70029 164.56419 33542 ft 449 kts 258°
2026-04-19 02:16 5.69365 164.53377 33254 ft 446 kts 258°
2026-04-19 02:16 5.68700 164.50328 32964 ft 445 kts 258°
2026-04-19 02:16 5.68043 164.47316 32678 ft 444 kts 258°
2026-04-19 02:16 5.67382 164.44289 32404 ft 442 kts 258°
2026-04-19 02:17 5.66730 164.41303 32150 ft 440 kts 258°
2026-04-19 02:17 5.66075 164.38303 31894 ft 439 kts 258°
2026-04-19 02:17 5.65429 164.35345 31639 ft 436 kts 258°
2026-04-19 02:17 5.64780 164.32370 31383 ft 434 kts 257°
2026-04-19 02:18 5.64133 164.29405 31076 ft 432 kts 258°
2026-04-19 02:18 5.63498 164.26491 30634 ft 428 kts 258°
2026-04-19 02:18 5.62864 164.23587 30134 ft 426 kts 258°
2026-04-19 02:18 5.62238 164.20725 29635 ft 424 kts 258°
2026-04-19 02:19 5.61609 164.17848 29129 ft 421 kts 258°
2026-04-19 02:19 5.60985 164.14996 28622 ft 419 kts 258°
2026-04-19 02:19 5.60375 164.12149 28133 ft 417 kts 259°
2026-04-19 02:20 5.59767 164.06403 27134 ft 413 kts 271°
2026-04-19 02:20 5.59830 164.03552 26628 ft 411 kts 274°
2026-04-19 02:20 5.60004 164.00682 26128 ft 409 kts 275°
2026-04-19 02:20 5.60217 163.97871 25634 ft 407 kts 276°
2026-04-19 02:21 5.60440 163.95050 25136 ft 406 kts 276°
2026-04-19 02:21 5.60657 163.92238 24637 ft 404 kts 276°
2026-04-19 02:21 5.60867 163.89433 24158 ft 402 kts 276°
2026-04-19 02:21 5.61068 163.86633 23656 ft 400 kts 275°
2026-04-19 02:22 5.61260 163.83884 23171 ft 399 kts 275°
2026-04-19 02:22 5.61448 163.81122 22684 ft 397 kts 275°
2026-04-19 02:22 5.61633 163.78357 22205 ft 395 kts 275°
2026-04-19 02:22 5.61813 163.75641 21734 ft 393 kts 275°
2026-04-19 02:23 5.61992 163.72910 21274 ft 391 kts 275°
2026-04-19 02:23 5.62170 163.70186 20799 ft 390 kts 275°
2026-04-19 02:23 5.62347 163.67474 20307 ft 388 kts 275°
2026-04-19 02:23 5.62523 163.64778 19834 ft 386 kts 275°
2026-04-19 02:24 5.62696 163.62109 19353 ft 385 kts 275°
2026-04-19 02:24 5.62868 163.59454 18866 ft 379 kts 275°
2026-04-19 02:24 5.63035 163.56854 18404 ft 371 kts 275°
2026-04-19 02:24 5.63201 163.54289 17946 ft 364 kts 275°
2026-04-19 02:25 5.63364 163.51765 17489 ft 357 kts 275°
2026-04-19 02:25 5.63521 163.49318 17076 ft 350 kts 275°
2026-04-19 02:25 5.63676 163.46913 16694 ft 343 kts 275°
2026-04-19 02:25 5.63832 163.44510 16256 ft 342 kts 275°
2026-04-19 02:26 5.63985 163.42151 15814 ft 341 kts 275°
2026-04-19 02:26 5.64140 163.39766 15400 ft 339 kts 275°
2026-04-19 02:26 5.64175 163.37424 14922 ft 341 kts 268°
2026-04-19 02:26 5.63733 163.35074 14489 ft 341 kts 252°
2026-04-19 02:27 5.62821 163.32869 14071 ft 339 kts 245°
2026-04-19 02:27 5.61794 163.30749 13634 ft 338 kts 244°
2026-04-19 02:27 5.60736 163.28630 13210 ft 336 kts 244°
2026-04-19 02:27 5.59705 163.26546 12792 ft 334 kts 244°
2026-04-19 02:28 5.58690 163.24452 12375 ft 332 kts 244°
2026-04-19 02:28 5.57693 163.22363 11959 ft 331 kts 245°
2026-04-19 02:28 5.56712 163.20293 11544 ft 329 kts 245°
2026-04-19 02:28 5.55724 163.18201 11126 ft 327 kts 245°
2026-04-19 02:29 5.54748 163.16132 10708 ft 326 kts 245°
2026-04-19 02:29 5.53785 163.14092 10307 ft 324 kts 244°
2026-04-19 02:29 5.52823 163.12056 9924 ft 322 kts 244°
2026-04-19 02:29 5.51867 163.10033 9760 ft 311 kts 244°
2026-04-19 02:30 5.50951 163.08095 9377 ft 310 kts 244°
2026-04-19 02:30 5.50024 163.06133 8963 ft 308 kts 244°
2026-04-19 02:30 5.49109 163.04198 8592 ft 305 kts 244°
2026-04-19 02:30 5.48207 163.02284 8223 ft 302 kts 244°
2026-04-19 02:31 5.47309 163.00382 7849 ft 300 kts 244°
2026-04-19 02:31 5.46420 162.98503 7481 ft 297 kts 244°
2026-04-19 02:31 5.45531 162.96628 7113 ft 295 kts 244°
2026-04-19 02:31 5.44656 162.94780 6755 ft 292 kts 244°
2026-04-19 02:32 5.43791 162.92952 6446 ft 288 kts 244°
2026-04-19 02:32 5.42930 162.91127 6102 ft 286 kts 244°
2026-04-19 02:32 5.42080 162.89320 5745 ft 284 kts 244°
2026-04-19 02:32 5.41236 162.87530 5387 ft 283 kts 244°
2026-04-19 02:33 5.40395 162.85750 5031 ft 282 kts 244°
2026-04-19 02:33 5.39560 162.83983 4684 ft 280 kts 244°
2026-04-19 02:33 5.38731 162.82222 4322 ft 279 kts 244°
2026-04-19 02:33 5.37900 162.80472 4013 ft 276 kts 244°
2026-04-19 02:34 5.37054 162.78763 3904 ft 265 kts 239°
2026-04-19 02:34 5.35981 162.77295 3828 ft 255 kts 219°
2026-04-19 02:34 5.34483 162.76511 3672 ft 239 kts 187°
2026-04-19 02:34 5.32833 162.76533 3185 ft 238 kts 162°
2026-04-19 02:35 5.31230 162.77119 2475 ft 249 kts 151°
2026-04-19 02:35 5.29800 162.78046 2041 ft 242 kts 131°
2026-04-19 02:35 5.29003 162.79437 1832 ft 225 kts 101°
2026-04-19 02:35 5.28978 162.80943 1625 ft 213 kts 81°
2026-04-19 02:36 5.29382 162.82333 1548 ft 197 kts 68°
2026-04-19 02:36 5.29945 162.83521 1532 ft 179 kts 65°
2026-04-19 02:36 5.30467 162.84601 1511 ft 163 kts 66°
2026-04-19 02:36 5.30918 162.85580 1482 ft 145 kts 67°
2026-04-19 02:37 5.31317 162.86469 1459 ft 138 kts 67°
2026-04-19 02:37 5.31700 162.87321 1466 ft 137 kts 67°
2026-04-19 02:37 5.32095 162.88185 1434 ft 136 kts 67°
2026-04-19 02:37 5.32489 162.89061 1409 ft 137 kts 67°
2026-04-19 02:38 5.32890 162.89946 1227 ft 137 kts 68°
2026-04-19 02:38 5.33237 162.90861 1104 ft 146 kts 77°
2026-04-19 02:38 5.33425 162.91849 918 ft 140 kts 80°
2026-04-19 02:38 5.33660 162.92798 612 ft 140 kts 67°
2026-04-19 02:39 5.33989 162.93349 434 ft 139 kts 57°
2026-04-19 02:39 5.34545 162.94125 281 ft 138 kts 58°
2026-04-19 02:39 5.35083 162.94928 124 ft 135 kts 59°
2026-04-19 02:39 5.35591 162.95680 30 ft 111 kts 60°
2026-04-19 02:40 5.35881 162.96115 26 ft 44 kts 58°
2026-04-19 02:40 5.36038 162.96349 18 ft 26 kts 58°
2026-04-19 02:40 5.36094 162.96449 15 ft 9 kts 73°
2026-04-19 02:40 5.36114 162.96451 15 ft 5 kts 275°
2026-04-19 02:41 5.36084 162.96390 16 ft 12 kts 233°
2026-04-19 02:41 5.36040 162.96329 18 ft 9 kts 238°
2026-04-19 02:41 5.36010 162.96280 20 ft 10 kts 237°
2026-04-19 02:41 5.35950 162.96197 23 ft 18 kts 234°
2026-04-19 02:42 5.35862 162.96074 26 ft 23 kts 235°
2026-04-19 02:42 5.35773 162.95947 28 ft 21 kts 236°
2026-04-19 02:42 5.35692 162.95828 29 ft 19 kts 235°
2026-04-19 02:42 5.35617 162.95720 29 ft 18 kts 235°
2026-04-19 02:43 5.35548 162.95619 30 ft 16 kts 236°
2026-04-19 02:43 5.35485 162.95532 29 ft 12 kts 214°
2026-04-19 02:43 5.35416 162.95544 29 ft 10 kts 144°
2026-04-19 02:43 5.35375 162.95596 29 ft 5 kts 117°
2026-04-19 02:44 5.35365 162.95604 28 ft 0 kts 164°